DW7187 Weather Reports


time (UTC)temp
C
wind
direction
speed
KPH
gust
KPH
rain 1hr
cm
rain 24hr
cm
rain mn
cm
humidity
%
barometer
mb
20260506122016 7 0 4.8 9.7 0.00 3.61 1.22 98 1008.4
20260506121017 7 23 4.8 11.3 0.00 3.61 1.22 98 1008.1
20260506120016 7 23 4.8 11.3 0.00 3.61 1.22 98 1008.3
20260506115016 7 0 3.2 9.7 0.00 3.61 1.22 98 1008.2
20260506114016 7 0 3.2 8.0 0.00 3.61 1.22 98 1008.5
20260506113016 7 0 4.8 9.7 0.00 3.61 1.22 98 1008.1
20260506112016 7 45 3.2 8.0 0.00 3.61 1.22 98 1007.8
20260506111016 7 0 6.4 11.3 0.00 3.61 1.22 98 1007.8
20260506110036 7 0 6.4 11.3 0.00 3.61 1.22 98 1008.0
20260506105016 7 0 6.4 12.9 0.00 3.61 1.22 98 1007.6
20260506103036 7 0 1.6 6.4 0.03 3.61 1.22 98 1006.6
20260506102016 7 0 1.6 4.8 0.05 3.61 1.22 98 1006.7
20260506101036 7 23 3.2 9.7 0.08 3.61 1.22 98 1006.7
20260506100016 7 23 1.6 4.8 0.13 3.61 1.22 98 1006.2
20260506095016 7 0 1.6 8.0 0.13 3.61 1.22 98 1006.6
20260506094036 7 0 4.8 9.7 0.10 3.58 1.19 98 1007.0
20260506093016 7 23 1.6 6.4 0.10 3.58 1.19 98 1007.4
20260506092016 7 23 3.2 6.4 0.10 3.56 1.17 98 1007.3
20260506091016 7 23 3.2 8.0 0.13 3.53 1.14 98 1007.2
20260506090016 7 23 3.2 6.4 0.13 3.48 1.09 98 1007.1
20260506085016 7 23 3.2 6.4 0.18 3.48 1.09 98 1007.1
20260506084016 7 23 4.8 9.7 0.25 3.48 1.09 98 1007.0
20260506083016 6 0 6.4 12.9 0.33 3.48 1.09 98 1006.9
20260506082036 6 0 8.0 12.9 0.36 3.45 1.07 98 1007.0
20260506081016 7 23 8.0 14.5 0.36 3.40 1.02 98 1007.0
20260506073016 7 23 4.8 8.0 0.25 3.15 0.76 98 1007.1
20260506072016 7 23 4.8 8.0 0.25 3.10 0.71 98 1006.9
20260506071016 7 0 6.4 14.5 0.23 3.05 0.66 98 1006.7
20260506062016 7 23 3.2 8.0 0.20 2.84 0.46 98 1006.6
20260506061016 7 0 4.8 11.3 0.23 2.82 0.43 98 1006.8
20260506051015 8 0 3.2 11.3 0.15 2.59 0.20 98 1007.5
20260506045016 8 0.0 1.6 0.18 2.54 0.15 98 1007.4
20260506044015 8 23 3.2 6.4 0.18 2.51 0.13 98 1007.6
20260506043016 8 23 1.6 11.3 0.20 2.49 0.10 98 1007.7
20260506042016 8 45 3.2 8.0 0.18 2.44 0.05 98 1007.8
20260506041016 9 0 4.8 9.7 0.20 2.44 0.05 98 1007.9
20260506040016 9 338 3.2 12.9 0.18 2.39 2.39 98 1007.8
20260506035017 9 0 4.8 9.7 0.15 2.36 2.36 98 1008.1
20260506034017 9 0 4.8 12.9 0.18 2.34 2.34 98 1008.2
20260506033017 9 0 4.8 9.7 0.15 2.29 2.29 98 1008.0
20260506032017 9 23 3.2 9.7 0.20 2.26 2.26 98 1008.0
20260506031017 9 23 4.8 9.7 0.28 2.24 2.24 98 1008.0
20260506030017 9 23 1.6 6.4 0.38 2.21 2.21 98 1007.9
20260506025017 9 23 4.8 11.3 0.48 2.21 2.21 98 1008.2
20260506024017 9 0 4.8 11.3 0.53 2.16 2.16 98 1008.6
20260506023017 9 0.0 4.8 0.61 2.13 2.13 98 1008.5
20260506022016 9 23 3.2 9.7 0.64 2.06 2.06 98 1008.7
20260506021016 9 23 4.8 14.5 0.64 1.96 1.96 98 1007.7
20260506020017 10 23 1.6 8.0 0.61 1.83 1.83 98 1007.4
20260506015017 10 23 3.2 8.0 0.61 1.73 1.73 98 1007.4
20260506014017 10 23 1.6 8.0 0.61 1.63 1.63 98 1007.4
20260506013037 10 23 4.8 9.7 0.53 1.52 1.52 98 1007.3
20260506012016 10 0 3.2 8.0 0.46 1.42 1.42 98 1007.1
20260506011017 11 0.0 3.2 0.38 1.32 1.32 98 1007.0
20260506010017 11 0.0 3.2 0.28 1.22 1.22 98 1006.8
20260506005017 11 0.0 4.8 0.18 1.12 1.12 98 1006.7
20260506004017 11 23 1.6 8.0 0.08 1.02 1.02 98 1006.8
20260506003016 11 45 1.6 6.4 0.10 0.99 0.99 98 1006.6
20260506002016 12 0.0 4.8 0.15 0.97 0.97 98 1006.7
20260506001016 12 0.0 3.2 0.20 0.94 0.94 97 1006.9
20260506000016 12 45 3.2 11.3 0.36 0.94 0.94 97 1006.6
20260505235016 13 0.0 0.0 0.64 0.94 0.94 98 1006.7
20260505234016 13 0.0 0.0 0.79 0.94 0.94 97 1006.9
20260505233017 13 0.0 0.0 0.76 0.89 0.89 97 1007.1
20260505232017 13 0.0 0.0 0.69 0.81 0.81 97 1007.1
20260505231016 13 0.0 1.6 0.61 0.74 0.74 97 1007.3
20260505230016 13 23 1.6 8.0 0.46 0.58 0.58 97 1007.2
20260505225016 13 270 1.6 9.7 0.18 0.30 0.30 96 1007.4
20260505224017 14 0.0 0.0 0.03 0.15 0.15 95 1007.0
20260505223016 14 0.0 0.0 0.00 0.13 0.13 95 1006.8
20260505222017 14 0.0 0.0 0.00 0.13 0.13 95 1006.8
20260505221016 14 0.0 0.0 0.00 0.13 0.13 95 1006.5
20260505220016 14 0.0 4.8 0.00 0.13 0.13 95 1007.0
20260505215017 14 0.0 1.6 0.00 0.13 0.13 95 1006.9
20260505214016 14 0 1.6 6.4 0.00 0.13 0.13 95 1007.0
20260505213016 15 0.0 1.6 0.03 0.13 0.13 95 1007.0
20260505212016 15 0.0 6.4 0.03 0.13 0.13 95 1007.0
20260505211036 15 0.0 6.4 0.13 0.13 0.13 94 1007.0
20260505210016 14 0.0 3.2 0.13 0.13 0.13 94 1007.1
20260505205016 15 0.0 0.0 0.13 0.13 0.13 93 1007.2
20260505204036 15 0 1.6 6.4 0.13 0.13 0.13 92 1007.1
20260505203016 15 0.0 0.0 0.10 0.10 0.10 91 1007.3
20260505202016 16 0.0 1.6 0.10 0.10 0.10 88 1007.2
20260505201016 17 293 1.6 6.4 0.00 0.00 0.00 85 1007.2
20260505200016 17 0.0 0.0 0.00 0.00 0.00 85 1006.8
20260505195036 17 0.0 1.6 0.00 0.00 0.00 82 1007.1
20260505194016 18 0.0 6.4 0.00 0.00 0.00 78 1007.2
20260505193016 18 0.0 0.0 0.00 0.00 0.00 79 1007.3
20260505192016 18 0.0 0.0 0.00 0.00 0.00 80 1007.3
20260505191016 18 0.0 0.0 0.00 0.00 0.00 79 1007.4
20260505190016 18 0.0 4.8 0.00 0.00 0.00 79 1007.4
20260505185016 17 0.0 1.6 0.00 0.00 0.00 80 1007.6
20260505184016 17 0.0 3.2 0.00 0.00 0.00 79 1007.7
20260505183016 17 0.0 8.0 0.00 0.00 0.00 79 1007.8
20260505182016 17 315 1.6 6.4 0.00 0.00 0.00 79 1007.9
20260505181016 17 270 1.6 9.7 0.00 0.00 0.00 78 1007.9
20260505180016 17 270 3.2 17.7 0.00 0.00 0.00 76 1007.6
20260505175016 17 270 6.4 14.5 0.00 0.00 0.00 75 1007.6
20260505174016 17 248 6.4 14.5 0.00 0.00 0.00 74 1007.4
20260505173017 18 270 8.0 20.9 0.00 0.00 0.00 72 1007.5
20260505172016 18 270 6.4 17.7 0.00 0.00 0.00 73 1007.4
20260505171016 18 270 6.4 16.1 0.00 0.00 0.00 71 1007.3
20260505170016 18 270 6.4 20.9 0.00 0.00 0.00 70 1007.4
20260505165016 19 293 6.4 17.7 0.00 0.00 0.00 68 1007.4
20260505164016 19 293 4.8 14.5 0.00 0.00 0.00 68 1007.3
20260505163016 19 248 3.2 16.1 0.00 0.00 0.00 68 1007.5
20260505162016 19 248 8.0 24.1 0.00 0.00 0.00 66 1007.4
20260505161036 20 270 4.8 12.9 0.00 0.00 0.00 68 1007.4
20260505153016 20 270 1.6 6.4 0.00 0.00 0.00 71 1006.7
20260505152036 20 203 4.8 16.1 0.00 0.00 0.00 70 1006.6
20260505151016 20 203 4.8 17.7 0.00 0.00 0.00 70 1006.9
20260505125016 15 203 3.2 6.4 0.00 0.00 0.00 83 1006.5
20260505124016 15 0.0 1.6 0.00 0.00 0.00 84 1006.6
20260505123015 15 0.0 0.0 0.00 0.00 0.00 83 1006.5